{"data":{"norad_id":69417,"epoch":"2026-09-20T03:36:37.971936Z","epoch_age_seconds":64939,"freshness":"FRESH","line1":"1 69417U 26125S   26263.15043949  .00000031  00000+0  29529-4 0  9991","line2":"2 69417  88.9877 270.2684 0002261 100.7479 259.3927 13.51025740 14813","mean_motion":13.5102574,"eccentricity":0.0002261,"inclination_deg":88.9877,"raan_deg":270.2684,"arg_perigee_deg":100.7479,"mean_anomaly_deg":259.3927,"bstar":2.9529e-5,"rev_number":1481,"period_min":106.5856820759,"perigee_km":1066.8033190567,"apogee_km":1070.1706824298,"semimajor_km":7446.6240007433,"source":"CELESTRAK","updated_at":"2026-09-20T09:00:24.869155Z"}}